OBJECT Q (43772 NORAD) Tracking and Keplerian Element Data

This shows tracking and keplerian element data for the satellite.

Feedback or suggestion? Click here.




ElementValue
Catalog43772
NameOBJECT Q
Epoch Orbit662
Epoch Day17.13534229
Epoch Year2019
RAAN90.8608
Inclination97.7684
Eccentricity0.0015694
Argument of Perigee109.013
Mean Anonmoly251.2792
Mean Motion14.94728068
Decay Rate4.99E-06
L11 43772U 18099Q 19017.13534229 .00000499 00000-0 51194-4 0 9993
L22 43772 97.7684 90.8608 0015694 109.0130 251.2792 14.94728068 6627

Live tracking and technical data element details for OBJECT Q (NORAD 43772). OBJECT Q can be tracked NOW for your location showing map with azimuth and elevation plus other details from your city location.

Track the satellite on the map from your city or location and see movement details for azimuth, elevation, latitude, longitude, range, height, and movement on the map or in text.







IsCatalogInMostPopularTable: catalog: 43772, numindb: 15
Update: records affected: 1



GetName: 43772 OBJECT Q

Hit Count: updated at: Fri, 18 Jan 2019 22:30:57 GMT